Wind_Speed
42 43 43 44 45 45 45 43 41 39 38 37 36 35 34 35 37 39 38 37 36 38 40 41 44 47 49 51 53 55 57 58 61 62 62 62 63 64 62 62 60 57 55 54
43 44 43 44 44 44 43 42 40 37 34 35 34 33 32 33 35 35 35 35 35 35 36 37 40 43 45 48 51 53 55 58 60 61 61 61 61 62 61 62 61 59 56 54
44 44 44 43 43 44 41 41 40 38 35 33 34 32 31 32 32 32 32 32 32 33 33 33 37 41 43 45 49 52 52 55 59 61 62 61 62 63 62 61 61 59 57 55
43 43 43 43 43 44 42 40 38 36 34 32 33 35 31 32 30 30 29 28 28 30 31 31 34 37 40 44 47 50 52 53 57 59 61 63 62 63 62 62 61 61 58 55
43 43 43 43 43 43 42 40 37 34 32 32 31 34 32 33 30 29 27 26 25 26 27 29 31 34 38 42 46 48 49 52 56 59 59 61 61 61 63 63 61 59 59 56
43 43 43 42 41 41 41 40 37 34 33 31 31 33 33 32 30 28 25 24 23 24 25 25 27 32 35 39 44 46 48 51 54 57 59 59 59 60 61 61 60 59 57 56
43 43 43 43 41 40 41 41 39 36 34 31 31 33 32 30 29 28 24 23 24 24 25 24 26 29 33 36 41 44 47 50 52 54 57 58 58 58 60 60 59 59 58 56
44 43 43 43 43 42 41 40 38 38 37 33 30 31 30 29 29 28 25 23 23 24 25 25 26 28 31 34 40 43 46 49 51 52 54 56 57 58 60 61 59 59 58 56
44 42 42 41 41 41 40 38 38 38 38 36 33 32 30 29 27 26 25 24 24 23 24 26 27 27 31 34 37 42 46 47 48 50 52 55 56 56 57 58 58 58 57 57
44 43 41 41 41 40 39 38 37 37 38 38 35 33 30 28 27 26 25 25 25 24 24 24 27 28 28 33 37 41 44 47 47 48 49 51 52 56 56 55 58 58 57 56
44 44 41 41 41 40 39 38 38 38 37 38 38 34 31 30 28 26 25 24 25 24 23 24 25 27 29 31 35 40 42 46 49 49 49 48 50 54 55 54 55 55 55 55
44 44 42 41 41 41 39 39 38 38 37 37 38 36 31 30 29 28 26 25 24 24 23 25 25 26 29 32 35 39 40 44 48 50 49 47 48 50 53 54 53 54 54 53
44 44 44 43 43 42 41 39 39 38 38 37 37 35 31 30 29 29 28 27 26 24 23 24 25 25 27 32 35 38 39 43 46 49 48 47 49 50 52 53 52 53 53 52
45 44 43 43 42 42 41 40 39 38 38 38 36 35 31 30 29 27 27 27 26 25 24 24 25 26 27 29 33 36 38 42 45 47 47 47 48 50 52 51 51 51 52 52
45 45 44 43 42 42 41 40 39 39 38 38 36 34 31 29 28 27 26 26 26 25 25 25 26 27 28 28 30 33 37 40 43 45 47 48 47 48 49 51 50 50 50 50
46 46 45 44 43 43 42 40 39 38 38 37 35 32 30 29 28 28 26 25 24 24 25 26 27 28 29 30 31 33 35 37 40 44 46 47 46 47 49 50 51 50 50 49
47 47 47 45 44 44 42 40 40 39 38 36 35 32 30 28 27 28 26 25 24 23 24 26 27 29 29 31 33 35 34 34 38 43 45 46 46 46 48 49 50 51 50 49
47 47 47 47 46 44 42 42 41 40 37 35 34 32 30 28 27 26 25 25 24 24 24 25 26 28 29 31 33 36 36 35 37 41 46 46 44 45 48 49 50 49 49 48
46 46 47 47 48 47 43 42 40 39 36 34 34 32 31 29 27 26 26 25 25 24 24 25 26 28 28 30 32 34 35 36 37 40 43 45 44 44 46 47 49 50 49 47
47 46 46 47 48 48 45 43 41 39 37 34 34 33 31 30 29 26 26 26 26 25 25 25 26 28 29 29 32 33 34 35 36 40 42 43 42 43 45 46 46 47 48 47
46 46 46 46 47 48 45 42 40 39 37 36 35 33 31 31 30 27 26 26 26 26 25 26 27 29 30 30 31 33 34 35 37 41 42 42 41 43 44 45 45 46 47 47
46 46 45 46 46 46 43 41 39 38 38 37 36 34 32 31 29 29 27 27 26 27 27 27 28 29 30 30 32 33 34 35 36 40 41 41 41 43 44 45 45 45 46 46
46 45 46 46 45 43 42 40 39 38 37 36 35 34 32 31 29 28 28 27 27 27 27 28 28 29 29 30 31 33 34 34 35 38 40 41 41 43 44 44 44 45 44 44
46 46 46 46 43 41 40 39 38 37 37 36 35 33 31 30 29 27 26 26 26 26 26 27 28 29 29 29 30 31 33 35 36 38 40 40 40 42 43 44 44 43 44 44
45 45 45 45 42 41 39 38 37 37 36 35 33 32 31 30 28 26 24 24 24 24 24 26 27 29 29 28 28 30 32 34 36 38 39 41 39 40 42 43 44 43 42 43
43 44 44 43 41 41 38 37 37 36 35 34 33 31 29 29 27 25 23 22 22 22 22 24 26 27 27 27 27 29 31 33 35 37 38 39 40 41 42 43 43 42 42 42
Wind_Direction
326 326 326 326 325 324 323 321 319 317 312 305 303 301 299 296 293 287 280 275 270 263 257 250 245 241 237 233 232 230 228 225 223 221 221 221 223 223 223 223 225 225 227 229
328 328 327 327 327 326 324 321 321 320 313 310 308 306 304 303 301 295 285 278 269 263 255 250 244 240 237 232 229 227 226 224 222 220 220 220 221 221 221 222 223 225 226 228
330 331 330 329 329 328 325 322 321 320 317 312 309 310 312 309 304 300 290 279 269 262 256 251 245 239 236 230 227 225 223 223 221 219 218 218 217 218 219 220 221 223 224 226
331 332 332 330 330 328 327 324 323 320 318 316 314 314 317 314 308 304 294 283 271 261 258 252 246 239 235 230 226 224 223 222 220 218 218 218 217 218 219 220 221 222 223 225
332 332 332 331 330 328 327 326 323 321 318 316 316 316 319 318 312 307 297 286 271 260 258 252 244 237 233 229 225 222 222 220 219 218 218 219 218 217 217 219 221 221 223 224
331 332 331 331 329 328 326 325 322 319 317 318 319 318 319 321 316 309 300 285 270 262 257 251 241 236 232 227 223 221 221 219 217 218 218 218 218 217 217 218 220 221 221 223
330 331 331 330 329 328 326 326 325 322 319 318 318 317 319 318 316 310 302 289 276 266 258 251 242 237 232 228 222 219 219 217 215 216 217 217 218 218 217 218 220 221 221 224
331 331 331 330 330 329 328 327 326 322 320 317 317 317 317 316 314 309 300 290 280 268 256 248 243 238 231 227 223 219 218 216 214 215 216 216 219 219 217 218 221 222 223 224
330 330 329 329 329 328 327 326 324 320 318 315 316 315 314 315 313 307 297 286 278 269 256 248 243 238 233 228 225 221 217 214 215 215 216 217 218 219 219 219 220 222 223 224
327 327 328 327 327 326 325 324 323 321 318 315 313 313 313 312 310 305 295 285 278 271 258 250 242 237 234 230 225 220 216 215 214 215 216 216 217 218 219 219 220 221 223 225
325 325 327 327 327 326 325 323 321 318 316 312 310 311 311 308 305 301 295 289 280 273 261 252 245 237 234 230 222 218 216 215 214 216 216 216 217 218 219 220 220 222 224 225
323 323 325 326 326 326 325 323 320 318 315 310 306 309 308 304 301 297 290 287 281 273 263 253 246 239 234 230 223 218 218 216 214 215 215 215 217 219 219 220 221 222 224 225
322 322 323 326 327 326 324 324 320 315 312 311 306 307 306 300 297 293 287 283 280 273 265 256 247 241 235 231 226 221 220 218 216 215 215 216 217 219 220 220 221 223 224 225
319 319 320 322 324 324 323 322 320 315 312 310 308 306 304 299 294 291 286 281 276 272 266 257 251 244 238 231 226 223 221 218 217 216 216 216 217 218 219 220 220 222 223 225
316 317 317 317 319 320 320 321 319 315 313 310 310 307 303 298 295 292 287 279 273 269 262 257 251 244 237 231 227 224 220 219 219 219 218 217 217 217 218 218 219 221 223 224
314 315 315 315 316 317 318 320 318 316 313 311 311 309 303 296 292 291 287 279 273 266 261 255 249 241 237 233 230 225 221 220 221 220 219 219 219 217 217 219 221 223 223 222
313 313 313 314 315 316 318 319 316 315 314 311 310 308 302 296 291 288 285 279 272 264 259 254 248 241 238 234 232 228 224 222 222 221 220 220 219 218 217 218 221 222 222 223
311 311 311 313 314 316 320 318 316 314 314 311 309 305 300 297 294 289 285 279 271 262 257 253 248 242 238 234 231 228 226 225 224 221 221 221 220 220 220 219 220 220 220 221
310 310 310 311 312 315 319 318 316 314 311 308 306 302 299 297 294 289 285 279 272 263 257 252 246 242 239 235 230 228 226 225 223 220 220 220 221 221 221 220 220 220 220 223
309 308 308 310 311 314 318 316 315 312 312 309 305 302 299 297 293 288 282 277 270 265 257 251 246 242 241 238 234 231 228 225 221 218 219 219 220 219 219 218 219 219 221 223
307 307 307 308 309 312 316 315 313 311 311 308 306 303 300 296 293 289 283 276 270 265 259 252 246 244 242 239 237 233 230 227 223 219 218 219 218 217 217 217 219 219 221 223
306 306 307 307 308 312 313 311 310 308 307 307 306 303 300 297 292 288 282 276 270 266 260 254 248 246 243 240 238 233 232 228 224 221 219 218 217 215 213 215 217 218 220 223
304 305 305 305 307 308 308 308 307 305 305 306 304 303 300 297 293 289 282 276 270 266 260 254 250 247 243 241 238 235 232 228 224 220 218 216 214 213 213 214 215 217 217 219
303 303 303 304 306 305 305 304 303 302 303 304 303 301 299 296 293 289 285 278 271 267 260 254 250 248 245 243 238 234 230 227 224 221 218 215 214 214 215 215 216 218 218 219
303 302 302 303 304 303 303 301 300 300 301 302 301 299 298 295 294 289 285 279 272 269 261 254 250 249 247 243 238 232 228 225 222 219 217 216 214 214 214 215 216 216 218 218
302 301 301 303 303 301 301 299 299 299 300 299 297 296 294 292 292 289 283 277 273 269 262 255 252 249 245 240 234 230 226 223 220 217 216 217 217 215 214 215 215 215 217 217
Height
5668 5662 5654 5646 5639 5631 5623 5616 5610 5605 5598 5593 5589 5585 5583 5580 5576 5573 5572 5571 5571 5572 5574 5577 5582 5587 5593 5600 5607 5615 5623 5632 5641 5651 5661 5671 5680 5691 5701 5710 5718 5726 5734 5741
5661 5654 5646 5639 5631 5624 5616 5609 5603 5598 5592 5586 5582 5580 5577 5572 5567 5564 5562 5561 5560 5562 5564 5567 5571 5576 5581 5588 5595 5603 5611 5620 5629 5639 5649 5659 5669 5679 5689 5698 5707 5716 5725 5732
5654 5647 5639 5632 5625 5617 5610 5602 5595 5590 5586 5582 5576 5575 5571 5566 5561 5557 5554 5553 5553 5554 5556 5559 5562 5567 5571 5577 5584 5591 5600 5607 5617 5627 5637 5647 5657 5667 5677 5687 5696 5706 5715 5723
5647 5640 5633 5625 5618 5610 5604 5597 5590 5583 5578 5575 5571 5565 5567 5560 5555 5550 5547 5546 5546 5547 5548 5550 5553 5557 5562 5567 5574 5582 5590 5597 5606 5616 5626 5637 5647 5657 5669 5678 5687 5696 5705 5713
5641 5634 5626 5619 5612 5604 5598 5591 5585 5579 5573 5570 5567 5560 5560 5554 5549 5545 5542 5540 5540 5541 5542 5543 5546 5549 5553 5559 5565 5573 5580 5588 5597 5607 5616 5627 5636 5648 5659 5668 5677 5687 5696 5704
5635 5628 5620 5614 5607 5599 5592 5586 5581 5575 5570 5566 5562 5555 5553 5548 5544 5540 5538 5536 5535 5535 5536 5537 5539 5542 5546 5551 5557 5564 5571 5579 5588 5597 5607 5618 5628 5638 5648 5658 5668 5677 5686 5694
5629 5621 5614 5607 5601 5595 5587 5580 5573 5568 5564 5561 5557 5551 5549 5544 5540 5536 5533 5531 5530 5530 5530 5531 5534 5537 5540 5545 5550 5556 5563 5572 5580 5589 5599 5609 5618 5628 5638 5649 5659 5668 5677 5685
5621 5615 5608 5600 5594 5588 5581 5574 5568 5562 5557 5555 5552 5548 5546 5541 5536 5532 5529 5527 5526 5526 5525 5526 5528 5531 5534 5538 5543 5549 5556 5564 5572 5581 5591 5600 5610 5619 5629 5640 5650 5660 5669 5678
5614 5610 5603 5596 5588 5582 5576 5570 5564 5557 5551 5547 5546 5543 5540 5536 5532 5529 5525 5523 5521 5521 5521 5522 5524 5525 5528 5532 5537 5542 5549 5557 5566 5574 5583 5592 5602 5611 5621 5632 5641 5651 5660 5669
5608 5603 5599 5592 5585 5578 5572 5566 5560 5553 5546 5541 5539 5537 5535 5531 5527 5525 5522 5519 5517 5516 5516 5517 5519 5520 5523 5526 5531 5537 5543 5551 5559 5567 5576 5585 5594 5604 5613 5623 5633 5642 5651 5660
5601 5596 5592 5586 5579 5573 5567 5561 5554 5548 5542 5536 5531 5534 5531 5526 5522 5520 5517 5514 5512 5511 5511 5512 5514 5516 5518 5521 5525 5531 5537 5545 5553 5561 5570 5578 5587 5596 5605 5615 5625 5634 5643 5652
5594 5588 5584 5581 5574 5567 5561 5555 5549 5543 5538 5531 5525 5527 5525 5520 5517 5514 5511 5509 5508 5507 5507 5507 5509 5511 5513 5516 5520 5525 5532 5539 5547 5554 5562 5570 5579 5588 5597 5607 5616 5626 5634 5642
5587 5581 5576 5572 5568 5561 5555 5550 5544 5537 5532 5526 5520 5521 5519 5514 5510 5507 5505 5504 5503 5502 5502 5503 5504 5506 5508 5511 5515 5520 5526 5533 5540 5548 5555 5563 5571 5580 5590 5599 5608 5617 5625 5634
5580 5576 5571 5566 5561 5554 5549 5544 5538 5531 5525 5520 5516 5512 5512 5507 5504 5501 5499 5498 5497 5497 5497 5498 5499 5501 5503 5506 5511 5515 5520 5527 5534 5541 5548 5556 5564 5573 5582 5591 5600 5608 5617 5625
5573 5569 5564 5559 5553 5548 5542 5538 5532 5525 5519 5513 5510 5506 5503 5500 5497 5495 5493 5492 5491 5491 5491 5492 5493 5495 5498 5501 5505 5509 5514 5520 5527 5534 5541 5549 5557 5565 5574 5583 5592 5600 5608 5617
5565 5560 5555 5552 5546 5539 5535 5532 5525 5519 5513 5507 5503 5500 5497 5493 5491 5489 5487 5485 5485 5485 5485 5486 5487 5490 5492 5496 5499 5504 5509 5514 5521 5527 5535 5542 5550 5558 5566 5575 5584 5592 5600 5609
5557 5551 5545 5542 5538 5531 5528 5524 5517 5512 5507 5501 5496 5494 5490 5487 5485 5482 5480 5479 5478 5478 5479 5479 5481 5484 5486 5490 5494 5498 5502 5508 5514 5520 5527 5535 5542 5550 5559 5567 5576 5584 5593 5601
5549 5542 5535 5531 5528 5523 5523 5515 5508 5503 5499 5494 5489 5486 5483 5480 5478 5476 5474 5472 5472 5472 5472 5473 5475 5477 5480 5483 5487 5491 5496 5501 5507 5513 5520 5528 5535 5543 5550 5559 5567 5576 5585 5593
5541 5533 5526 5521 5515 5512 5513 5507 5500 5494 5492 5488 5482 5479 5476 5473 5471 5470 5467 5466 5465 5465 5466 5467 5468 5471 5474 5477 5480 5484 5489 5495 5500 5506 5512 5520 5528 5535 5543 5551 5560 5569 5577 5585
5532 5526 5520 5513 5506 5502 5504 5498 5491 5487 5484 5480 5475 5472 5469 5466 5464 5464 5461 5459 5458 5458 5459 5460 5462 5465 5467 5470 5473 5478 5482 5487 5492 5498 5505 5513 5520 5527 5535 5544 5552 5561 5569 5578
5523 5517 5512 5505 5497 5494 5495 5488 5483 5480 5477 5471 5467 5464 5461 5458 5456 5455 5453 5452 5451 5451 5452 5453 5455 5458 5460 5463 5466 5471 5475 5480 5485 5491 5498 5505 5512 5520 5528 5536 5545 5553 5562 5571
5513 5508 5503 5497 5491 5490 5484 5479 5475 5472 5467 5463 5459 5456 5453 5450 5448 5446 5445 5444 5443 5443 5444 5445 5447 5450 5453 5456 5459 5463 5468 5472 5477 5483 5491 5498 5505 5513 5521 5529 5537 5546 5554 5563
5503 5499 5493 5489 5487 5482 5475 5470 5466 5462 5458 5455 5451 5448 5445 5442 5440 5438 5437 5436 5435 5435 5436 5437 5439 5442 5445 5448 5451 5455 5460 5464 5469 5476 5483 5490 5498 5505 5513 5521 5530 5538 5547 5555
5493 5488 5482 5478 5477 5472 5467 5462 5458 5454 5450 5447 5443 5440 5437 5434 5432 5430 5429 5428 5428 5427 5428 5429 5431 5434 5437 5440 5443 5447 5451 5456 5462 5469 5476 5483 5490 5497 5506 5514 5522 5531 5539 5548
5483 5477 5471 5468 5466 5461 5458 5453 5448 5445 5442 5438 5435 5432 5428 5426 5424 5423 5421 5420 5420 5420 5420 5421 5423 5426 5429 5432 5435 5439 5443 5448 5455 5461 5469 5476 5483 5490 5499 5507 5516 5524 5533 5541
5474 5467 5462 5459 5456 5450 5448 5444 5439 5436 5433 5430 5427 5424 5421 5419 5417 5416 5414 5413 5413 5413 5413 5414 5416 5419 5422 5425 5428 5432 5436 5441 5448 5455 5462 5469 5476 5484 5492 5500 5508 5517 5526 5533